Latest Weather Observations for Gold Coast Seaway

IDQ60801

Issued at 4:35 pm EST Thursday 17 April 2014 (issued every 30 minutes, with the page automatically refreshed every 10 minutes)

About weather observations | Map of weather stations | Latest weather observations for QLD | Other Formats
Station Details ID: 040764 Name: GOLD COAST SEAWAY Lat: -27.94 Lon: 153.43 Height: 2.98 m
Data from the previous 72 hours. | See also: Recent months at Gold Coast Seaway
Date/Time
EST
Temp
°C
App
Temp
°C
Dew
Point
Rel
Hum
%
Delta-T
°C
Wind Press
QNH
hPa
Press
MSL
hPa
Rain
since 9 am
mm
Dir
 
Spd
km/h
Gust
km/h
Spd
kts
Gust
kts
17/04:30pm 23.7 21.0 15.5 60 4.9 SE 24 28 13 15 1014.8 - 0.0
17/04:00pm 24.3 21.6 14.7 55 5.7 ESE 22 28 12 15 1014.6 - 0.0
17/03:30pm 24.7 22.0 14.5 53 6.1 ESE 22 28 12 15 1014.6 - 0.0
17/03:00pm 25.2 23.0 14.3 50 6.5 ESE 19 24 10 13 1014.7 1014.7 0.0
17/02:30pm 25.4 23.3 14.8 52 6.3 ESE 19 22 10 12 1014.8 - 0.0
17/02:00pm 25.8 23.3 13.6 47 7.2 ESE 19 20 10 11 1015.1 - 0.0
17/01:30pm 26.3 23.7 13.1 44 7.7 ESE 19 20 10 11 1015.4 - 0.0
17/01:00pm 24.5 22.9 14.0 52 6.2 ESE 15 19 8 10 1015.7 - 0.0
17/12:30pm 26.0 24.2 13.2 45 7.5 ESE 15 17 8 9 1015.9 - 0.0
17/12:00pm 26.1 24.0 13.6 46 7.4 ESE 17 20 9 11 1016.3 1016.3 0.0
17/11:30am 25.6 22.9 12.8 45 7.4 SE 19 20 10 11 1016.8 - 0.0
17/11:00am 26.3 23.7 13.1 44 7.7 SE 19 22 10 12 1017.3 - 0.0
17/10:30am 26.0 24.4 12.8 44 7.7 SSE 13 17 7 9 1017.6 - 0.0
17/10:00am 25.4 22.7 10.4 39 8.3 S 15 19 8 10 1017.8 - 0.0
17/09:30am 24.7 22.7 11.6 44 7.4 S 13 19 7 10 1017.8 - 0.0
17/09:00am 23.5 21.0 10.9 45 7.0 S 15 20 8 11 1017.9 1017.9 0.0
17/08:30am 22.4 20.7 12.4 53 5.7 S 13 15 7 8 1018.0 - 0.0
17/08:00am 20.4 19.8 12.4 60 4.5 WNW 7 9 4 5 1017.9 - 0.0
17/07:30am 19.4 18.9 12.2 63 4.0 WNW 6 7 3 4 1017.7 - 0.0
17/07:00am 18.6 18.1 12.8 69 3.3 WSW 7 9 4 5 1017.5 - 0.0
17/06:30am 17.3 16.0 12.6 74 2.6 WSW 11 11 6 6 1017.1 - 0.0
17/06:00am 17.2 16.1 11.9 71 2.9 WSW 9 13 5 7 1016.9 1016.9 0.0
17/05:30am 17.0 15.6 12.3 74 2.6 WSW 11 13 6 7 1016.5 - 0.0
17/05:00am 17.0 15.6 12.1 73 2.7 WSW 11 13 6 7 1016.2 - 0.0
17/04:30am 17.3 16.3 12.4 73 2.7 W 9 11 5 6 1016.1 - 0.0
17/04:00am 17.5 16.4 11.8 69 3.1 SW 9 15 5 8 1015.8 - 0.0
17/03:30am 17.0 16.1 12.5 75 2.5 WSW 9 13 5 7 1015.7 - 0.0
17/03:00am 16.9 16.4 12.8 77 2.3 WNW 7 11 4 6 1015.7 1015.7 0.0
17/02:30am 17.6 16.6 13.5 77 2.3 WNW 11 11 6 6 1015.7 - 0.0
17/02:00am 18.1 17.5 13.6 75 2.6 W 9 13 5 7 1015.7 - 0.0
17/01:30am 18.1 17.5 13.6 75 2.6 WNW 9 11 5 6 1015.9 - 0.0
17/01:00am 18.3 17.9 14.0 76 2.5 SW 9 11 5 6 1016.0 - 0.0
17/12:30am 18.5 18.1 14.2 76 2.5 SW 9 11 5 6 1016.1 - 0.0
17/12:00am 18.7 18.3 14.0 74 2.7 SW 9 13 5 7 1016.3 1016.3 0.0
 
Date/Time
EST
Temp
°C
App
Temp
°C
Dew
Point
Rel
Hum
%
Delta-T
°C
Wind Press
QNH
hPa
Press
MSL
hPa
Rain
since 9 am
mm
Dir
 
Spd
km/h
Gust
km/h
Spd
kts
Gust
kts
16/11:30pm 19.0 18.2 14.1 73 2.8 SSW 11 15 6 8 1016.3 - 0.0
16/11:00pm 19.2 18.8 14.0 72 3.0 SSW 9 13 5 7 1016.5 - 0.0
16/10:30pm 19.3 18.8 13.9 71 3.1 SSW 9 17 5 9 1016.4 - 0.0
16/10:00pm 19.2 18.3 13.6 70 3.2 S 11 17 6 9 1016.6 - 0.0
16/09:30pm 20.0 18.7 13.7 67 3.6 S 13 19 7 10 1016.4 - 0.0
16/09:00pm 20.0 18.4 13.9 68 3.5 S 15 20 8 11 1016.2 1016.2 0.0
16/08:30pm 20.1 17.9 13.3 65 3.9 S 17 26 9 14 1016.0 - 0.0
16/08:00pm 20.5 17.9 13.2 63 4.2 S 19 26 10 14 1015.9 - 0.0
16/07:30pm 21.4 17.6 14.8 66 3.9 S 28 35 15 19 1015.5 - 0.0
16/07:00pm 21.8 17.8 15.2 66 3.9 S 30 35 16 19 1015.2 - 0.0
16/06:30pm 22.0 17.4 15.1 65 4.1 SSE 33 37 18 20 1014.8 - 0.0
16/06:00pm 22.2 18.1 16.0 68 3.7 SSE 32 37 17 20 1014.4 1014.4 0.0
16/05:30pm 22.6 18.1 17.3 72 3.3 SSE 37 44 20 24 1014.2 - 0.0
16/05:00pm 23.2 19.4 17.2 69 3.7 SSE 33 41 18 22 1013.9 - 0.0
16/04:30pm 24.1 20.6 15.6 59 5.1 SSE 28 33 15 18 1013.6 - 0.0
16/04:00pm 24.7 21.0 15.9 58 5.3 SSE 30 37 16 20 1013.4 - 0.0
16/03:30pm 26.0 21.7 13.2 45 7.5 SSE 28 33 15 18 1013.1 - 0.0
16/03:00pm 26.6 21.3 12.6 42 8.1 S 32 41 17 22 1013.3 1013.3 0.0
16/02:30pm 26.1 21.0 13.2 44 7.5 SSE 32 39 17 21 1013.3 - 0.0
16/02:00pm 25.2 21.4 14.6 51 6.3 SE 28 33 15 18 1013.6 - 0.0
16/01:30pm 26.6 23.1 14.4 47 7.3 SE 26 32 14 17 1013.7 - 0.0
16/01:00pm 25.3 22.3 13.8 49 6.8 SE 22 28 12 15 1013.8 - 0.0
16/12:30pm 26.3 23.3 13.8 46 7.4 SE 22 28 12 15 1014.3 - 0.0
16/12:00pm 25.5 23.4 15.2 53 6.2 SE 20 26 11 14 1014.7 1014.7 0.0
16/11:30am 25.1 23.4 14.6 52 6.3 SE 17 20 9 11 1015.2 - 0.0
16/11:00am 25.4 23.6 14.5 51 6.5 SSE 17 19 9 10 1015.7 - 0.0
16/10:30am 25.0 23.3 14.8 53 6.1 SSE 17 24 9 13 1016.2 - 0.0
16/10:00am 24.4 23.4 14.5 54 5.9 SSE 13 15 7 8 1016.4 - 0.0
16/09:30am 23.4 21.9 13.0 52 6.0 S 13 17 7 9 1016.5 - 0.0
16/09:00am 22.4 20.4 12.6 54 5.6 SSW 15 20 8 11 1016.4 1016.4 0.0
16/08:30am 21.5 19.9 12.9 58 4.9 SSW 13 19 7 10 1016.4 - 0.0
16/08:00am 20.8 19.8 13.3 62 4.3 SSW 11 17 6 9 1016.4 - 0.0
16/07:30am 19.4 18.7 13.1 67 3.6 W 9 11 5 6 1016.0 - 0.0
16/07:00am 18.3 17.7 13.4 73 2.8 SW 9 11 5 6 1015.7 - 0.0
16/06:30am 17.0 16.1 12.7 76 2.4 W 9 11 5 6 1015.1 - 0.0
16/06:00am 16.4 15.5 12.6 78 2.1 WSW 9 11 5 6 1015.0 1015.0 0.0
16/05:30am 16.8 16.6 12.9 78 2.2 SW 6 9 3 5 1014.7 - 0.0
16/05:00am 16.2 15.4 11.8 75 2.4 SW 7 9 4 5 1014.7 - 0.0
16/04:30am 17.2 16.1 12.1 72 2.8 SW 9 11 5 6 1014.6 - 0.0
16/04:00am 17.6 16.0 11.6 68 3.3 SW 11 15 6 8 1014.6 - 0.0
16/03:30am 17.6 16.0 11.6 68 3.3 W 11 13 6 7 1014.5 - 0.0
16/03:00am 17.9 16.3 11.7 67 3.4 WSW 11 15 6 8 1014.4 1014.4 0.0
16/02:30am 18.1 16.3 12.1 68 3.3 WSW 13 17 7 9 1014.4 - 0.0
16/02:00am 18.1 17.0 12.1 68 3.3 WSW 9 15 5 8 1014.5 - 0.0
16/01:30am 18.5 16.9 12.7 69 3.2 WSW 13 17 7 9 1014.7 - 0.0
16/01:00am 18.7 17.1 12.9 69 3.3 W 13 17 7 9 1014.8 - 0.0
16/12:30am 18.7 17.2 13.1 70 3.2 WSW 13 15 7 8 1015.1 - 0.0
16/12:00am 19.2 18.1 13.2 68 3.4 WSW 11 15 6 8 1015.2 1015.2 0.0
 
Date/Time
EST
Temp
°C
App
Temp
°C
Dew
Point
Rel
Hum
%
Delta-T
°C
Wind Press
QNH
hPa
Press
MSL
hPa
Rain
since 9 am
mm
Dir
 
Spd
km/h
Gust
km/h
Spd
kts
Gust
kts
15/11:30pm 18.7 17.7 13.3 71 3.1 WSW 11 15 6 8 1015.3 - 0.0
15/11:00pm 19.2 18.3 13.8 71 3.1 WSW 11 15 6 8 1015.5 - 0.0
15/10:30pm 19.1 18.2 13.7 71 3.1 SW 11 15 6 8 1015.5 - 0.0
15/10:00pm 19.2 18.3 13.6 70 3.2 SSW 11 17 6 9 1015.7 - 0.0
15/09:30pm 19.5 18.6 13.7 69 3.3 SW 11 17 6 9 1015.9 - 0.0
15/09:00pm 19.5 18.6 13.7 69 3.3 SSW 11 15 6 8 1015.9 1015.9 0.0
15/08:30pm 19.8 18.4 13.5 67 3.6 SSW 13 17 7 9 1016.1 - 0.0
15/08:00pm 19.9 18.5 13.4 66 3.7 SSW 13 19 7 10 1016.2 - 0.0
15/07:30pm 19.8 17.7 13.5 67 3.6 S 17 26 9 14 1016.1 - 0.0
15/07:00pm 20.0 16.9 13.5 66 3.7 S 22 30 12 16 1015.8 - 0.0
15/06:30pm 20.0 17.6 13.9 68 3.5 S 19 28 10 15 1015.5 - 0.0
15/06:00pm 20.4 16.1 14.3 68 3.5 S 30 37 16 20 1015.0 1015.0 0.0
15/05:30pm 20.9 15.6 14.1 65 3.9 S 35 43 19 23 1014.7 - 0.0
15/05:09pm 21.7 17.2 14.8 65 4.1 S 32 50 17 27 1014.3 - 0.0
15/05:00pm 21.8 17.7 14.9 65 4.1 S 30 33 16 18 1014.3 - 0.0
15/04:30pm 22.2 17.7 15.3 65 4.1 S 33 41 18 22 1014.3 - 0.0
15/04:00pm 21.8 16.9 13.7 60 4.7 S 32 37 17 20 1014.3 - 0.0
15/03:30pm 22.6 15.6 15.4 64 4.3 SSE 46 54 25 29 1014.2 - 0.0
15/03:00pm 23.2 18.4 15.5 62 4.6 SSE 35 50 19 27 1014.0 1014.0 0.0
15/02:48pm 23.6 19.5 14.9 58 5.2 S 30 50 16 27 1014.1 - 0.0
15/02:30pm 24.5 20.8 16.0 59 5.2 S 30 37 16 20 1013.9 - 0.0
15/02:00pm 23.5 19.0 15.0 59 5.1 S 32 41 17 22 1014.1 - 0.0
15/01:30pm 23.7 19.9 14.7 57 5.3 S 28 35 15 19 1014.1 - 0.0
15/01:00pm 24.0 20.0 15.2 58 5.3 SSE 30 35 16 19 1014.5 - 0.0
15/12:30pm 23.6 19.4 15.6 61 4.8 S 32 39 17 21 1014.8 - 0.0
15/12:00pm 23.7 19.7 15.2 59 5.1 S 30 35 16 19 1015.1 1015.1 0.0
15/11:30am 22.5 19.7 15.4 64 4.2 S 24 37 13 20 1015.5 - 0.0
15/11:00am 23.3 19.0 14.3 57 5.3 S 30 39 16 21 1015.8 - 0.0
15/10:30am 24.7 20.7 15.1 55 5.8 S 30 39 16 21 1016.1 - 0.0
15/10:00am 24.0 19.4 15.2 58 5.3 S 33 43 18 23 1016.2 - 0.0
15/09:30am 23.5 18.8 15.8 62 4.6 S 35 46 19 25 1016.2 - 0.0
15/09:00am 22.7 18.2 15.3 63 4.4 S 33 46 18 25 1016.1 1016.1 1.0
15/08:30am 21.9 17.4 15.5 67 3.8 S 33 39 18 21 1015.9 - 1.0
15/08:00am 21.2 16.9 15.5 70 3.4 S 32 43 17 23 1016.0 - 1.0
15/07:30am 20.6 16.7 15.4 72 3.1 S 30 41 16 22 1015.8 - 1.0
15/07:11am 20.3 16.0 15.3 73 3.0 S 32 52 17 28 1015.7 - 1.0
15/07:00am 20.0 17.1 15.0 73 2.9 S 24 33 13 18 1015.5 - 1.0
15/06:30am 19.6 15.0 14.6 73 2.9 S 32 41 17 22 1015.1 - 1.0
15/06:00am 19.2 16.5 14.5 74 2.7 S 22 28 12 15 1014.8 1014.8 1.0
15/05:30am 19.5 16.4 14.5 73 2.9 S 24 35 13 19 1014.3 - 1.0
15/05:00am 19.6 15.8 14.6 73 2.9 S 28 35 15 19 1014.2 - 1.0
15/04:30am 19.7 16.3 14.7 73 2.9 S 26 35 14 19 1013.9 - 1.0
15/04:06am 20.2 15.1 14.8 71 3.2 S 35 54 19 29 1013.7 - 1.0
15/04:00am 20.2 14.8 15.0 72 3.1 S 37 54 20 29 1013.7 - 1.0
15/03:57am 20.2 15.6 15.0 72 3.1 S 33 54 18 29 1013.7 - 1.0
15/03:30am 20.5 15.7 15.5 73 3.0 S 35 46 19 25 1013.8 - 1.0
15/03:00am 20.3 15.9 15.1 72 3.1 S 32 43 17 23 1013.5 1013.5 1.0
15/02:30am 20.2 15.3 15.2 73 2.9 S 35 50 19 27 1013.5 - 1.0
15/02:00am 20.5 15.7 15.7 74 2.9 S 35 43 19 23 1013.7 - 1.0
15/01:30am 20.6 15.5 15.8 74 2.9 S 37 48 20 26 1013.8 - 1.0
15/01:00am 20.5 15.7 15.7 74 2.9 S 35 44 19 24 1014.1 - 1.0
15/12:30am 20.8 16.9 16.4 76 2.7 S 32 43 17 23 1014.2 - 1.0
15/12:00am 20.8 15.5 16.4 76 2.7 S 39 48 21 26 1014.2 1014.2 1.0
 
Date/Time
EST
Temp
°C
App
Temp
°C
Dew
Point
Rel
Hum
%
Delta-T
°C
Wind Press
QNH
hPa
Press
MSL
hPa
Rain
since 9 am
mm
Dir
 
Spd
km/h
Gust
km/h
Spd
kts
Gust
kts
14/11:30pm 20.7 16.2 16.3 76 2.6 S 35 46 19 25 1014.6 - 1.0
14/11:00pm 20.6 16.3 16.0 75 2.8 S 33 41 18 22 1014.9 - 1.0
14/10:30pm 20.6 16.4 15.8 74 2.9 S 32 43 17 23 1015.0 - 1.0
14/10:00pm 20.9 16.7 16.1 74 2.9 S 33 43 18 23 1015.3 - 1.0
14/09:30pm 21.1 16.3 16.5 75 2.8 S 37 46 20 25 1015.1 - 1.0
14/09:00pm 20.9 16.8 15.9 73 3.0 S 32 41 17 22 1015.1 1015.1 1.0
14/08:30pm 20.9 17.2 16.1 74 2.9 S 30 37 16 20 1014.9 - 1.0
14/08:00pm 21.0 17.2 16.6 76 2.7 S 32 39 17 21 1014.6 - 1.0
14/07:30pm 21.7 18.0 18.3 81 2.1 S 35 52 19 28 1014.3 - 1.0
14/07:25pm 21.5 18.9 17.7 79 2.3 S 28 48 15 26 1014.2 - 1.0
14/07:00pm 21.2 17.7 16.6 75 2.8 S 30 41 16 22 1013.8 - 1.0
14/06:30pm 21.5 17.6 16.9 75 2.8 S 33 43 18 23 1013.5 - 1.0
14/06:05pm 22.2 15.7 16.5 70 3.5 SSE 46 65 25 35 1013.2 - 1.0
14/06:00pm 22.7 16.1 17.2 71 3.4 SSE 48 65 26 35 1013.0 1013.0 1.0
14/05:44pm 22.3 17.4 17.4 74 3.0 S 39 57 21 31 1012.9 - 1.0
14/05:30pm 21.2 17.5 17.4 79 2.3 S 33 44 18 24 1012.9 - 1.0
14/05:02pm 22.5 18.6 18.7 79 2.4 SSE 37 56 20 30 1012.7 - 0.8
14/05:00pm 22.3 18.7 18.5 79 2.4 SSE 35 52 19 28 1012.7 - 0.8
14/04:53pm 21.9 17.7 18.1 79 2.4 S 37 56 20 30 1012.7 - 0.8
14/04:44pm 21.8 16.1 17.2 75 2.8 S 43 56 23 30 1012.5 - 0.8

Other Formats:

Comma delimited format used in spreadsheet applications
http://www.bom.gov.au/fwo/IDQ60801/IDQ60801.94580.axf

JavaScript Object Notation format (JSON) in row-major order
http://www.bom.gov.au/fwo/IDQ60801/IDQ60801.94580.json